Location: North Evanston
(42.0634°N, 87.6976°W)
Time: 14:18:21
(UTC+00:00)

Vanguard 2 - Pass Details

Date: 11 May 2026
Orbit: 553 x 2894 km, 32.9° (Epoch: 8 June)

Event Time Altitude Azimuth Distance (km) Brightness Sun altitude
Rises 07:26:21 0° 216° (SW) 6,550 - -25.8°
Reaches altitude 10° 07:31:10 10° 209° (SSW) 5,655 - -25.4°
Exits shadow 07:39:31 28° 185° (S) 4,350 10.8 -24.7°
Maximum altitude 07:46:02 36° 151° (SSE) 3,836 10.7 -24.0°
Drops below altitude 10° 07:58:51 10° 93° (E) 4,910 12.0 -22.8°
Sets 08:02:38 0° 85° (E) 5,630 12.5 -22.4°
